#timestamp,LO_Frequency,Hit 
1504166415.6,286046994.2,N
1504166435.4,286046996.0,N
1504166455.2,286046996.1,N
1504166475.1,286046995.7,N
1504166476.0,286046995.7,N
1504166495.8,286046994.5,N
1504166515.6,286046992.2,P
1504166535.5,286046998.5,N
1504166555.3,286046999.4,N
1504166575.1,286047001.9,N
1504166595.9,286047001.7,N
1504166615.7,286047001.8,N
1504166635.5,286047001.9,N
1504166655.3,286047002.6,N
1504166675.2,286047003.3,N
1504166695.0,286047003.5,N
1504166695.9,286047003.5,N
1504166715.7,286047005.7,N
1504166735.6,286047004.7,N
1504166755.4,286047003.0,N
1504166775.2,286047006.0,N
1504166795.1,286047003.5,N
1504166796.0,286047003.5,N
1504166815.8,286047005.9,N
1504166835.6,286047005.7,N
1504166855.5,286047004.8,N
1504166875.3,286047008.5,N
1504166895.1,286047010.2,N
1504166915.9,286047010.2,N
1504166935.7,286047007.9,N
1504166955.5,286047006.6,N
1504166975.3,286047005.7,N
1504166995.2,286047003.8,N
1504167015.0,286047001.3,N
1504167015.9,286047001.3,N
1504167035.7,286047001.8,N
1504167055.6,286047005.9,N
1504167075.4,286047003.1,N
1504167095.2,286047004.1,N
1504167115.1,286047002.6,N
1504167116.0,286047002.6,N
1504167135.6,286047002.8,N
1504167155.5,286047000.2,N
1504167175.3,286047001.9,N
1504167195.1,286047004.3,N
1504167215.9,286047004.2,N
1504167235.7,286047001.6,N
1504167255.5,286047005.5,N
1504167275.3,286047004.4,N
1504167295.2,286046999.9,N
1504167315.0,286046999.9,N
1504167315.9,286046999.9,N
1504167335.7,286046999.6,N
1504167355.6,286046998.3,N
1504167375.4,286046998.3,N
1504167395.2,286046999.5,N
1504167415.1,286046997.5,N
1504167416.0,286046997.5,N
1504167435.8,286046993.3,N
1504167455.6,286046993.9,N
1504167475.5,286046992.4,N
1504167495.3,286046993.2,N
1504167515.2,286046989.1,P
1504167535.9,286046983.9,N
1504167555.7,286046985.2,N
1504167575.6,286046982.8,N
1504167595.4,286046983.3,N
1504167615.2,286046979.1,P
1504167635.1,286046994.1,N
1504167636.0,286046994.1,N
1504167655.8,286046993.9,N
1504167675.6,286046994.0,N
1504167695.5,286046992.4,N
1504167715.3,286046993.2,N
1504167735.1,286046990.9,N
1504167755.8,286046989.7,N
1504167775.7,286046990.8,N
1504167795.5,286046988.3,N
1504167815.3,286046988.2,N
1504167835.2,286046986.6,P
1504167855.0,286046994.6,N
1504167855.9,286046994.6,N
1504167875.8,286046993.0,N
1504167895.6,286046992.7,N
1504167915.4,286046993.7,N
1504167935.3,286046993.0,N
1504167955.1,286046990.7,P
1504167975.8,286046996.6,P
1504167995.7,286046998.0,N
1504168015.5,286046997.5,N
1504168035.3,286046994.2,N
1504168055.2,286046996.0,N
1504168075.9,286046994.0,N
1504168095.7,286046994.7,N
1504168115.6,286046992.9,P
1504168135.4,286046996.8,P
1504168155.2,286046998.0,N
1504168175.1,286046994.9,N
1504168176.0,286046994.9,N
1504168195.8,286046999.6,N
1504168215.6,286046996.9,N
1504168235.5,286046996.3,N
1504168255.3,286046992.7,P
1504168275.1,286046995.8,N
1504168295.9,286046993.9,P
1504168315.7,286046996.4,N
1504168335.5,286046995.3,P
1504168355.4,286047001.2,P
1504168375.2,286046998.1,N
1504168395.0,286047000.5,N
1504168395.9,286047000.5,N
1504168415.8,286047000.9,N
1504168435.6,286047000.1,N
1504168455.4,286047001.5,N
1504168475.3,286047002.6,N
1504168495.1,286047001.2,N
1504168496.0,286047001.2,N
1504168515.8,286046998.5,N
1504168535.7,286047002.5,N
1504168555.5,286047000.0,N
1504168575.3,286047002.3,N
1504168595.1,286047002.0,N
1504168615.9,286047004.4,N
1504168635.7,286047004.1,N
1504168655.5,286047004.2,N
1504168675.4,286047001.8,N
1504168695.2,286047000.9,N
1504168715.0,286046998.3,N
1504168715.9,286046998.3,N
1504168735.8,286046998.7,N
1504168755.6,286046996.9,N
1504168775.4,286046998.9,N
1504168795.3,286046996.8,N
1504168815.1,286046997.4,N
1504168816.0,286046997.4,N
1504168835.8,286046997.5,N
1504168855.7,286046995.9,N
1504168875.5,286046995.8,N
1504168895.3,286046998.6,N
1504168915.1,286046995.4,N
1504168935.9,286046992.1,P
1504168955.7,286046990.3,N
1504168975.6,286046988.5,N
1504168995.4,286046988.9,N
1504169015.2,286046986.2,P
1504169035.1,286046994.8,N
1504169036.0,286046994.8,N
1504169055.8,286046991.5,N
1504169075.6,286046989.5,P
1504169095.5,286046996.4,P
1504169115.3,286046991.7,N
1504169135.1,286046995.1,N
1504169155.9,286046994.7,N
1504169175.7,286046992.7,P
1504169195.5,286047002.7,P
1504169215.4,286047002.8,N
1504169235.2,286046999.2,N
1504169255.0,286046998.3,N
1504169255.9,286046998.3,N
1504169275.8,286046993.4,N
1504169295.6,286046990.2,N
1504169315.4,286046989.5,N
1504169335.3,286046986.1,P
1504169355.1,286046989.9,N
1504169375.8,286046990.4,N
1504169395.7,286046994.7,N
1504169415.5,286046992.4,N
1504169435.3,286046994.8,N
1504169455.2,286046996.3,N
1504169475.9,286046995.4,N
1504169495.7,286046996.6,N
1504169515.6,286047000.2,N
1504169535.4,286047001.9,N
1504169555.2,286047001.3,N
1504169575.1,286047005.0,N
1504169576.0,286047005.0,N
1504169595.8,286047005.3,N
1504169615.6,286047005.6,N
1504169635.4,286047009.1,N
1504169655.3,286047006.4,N
1504169675.1,286047006.5,N
1504169695.8,286047004.8,N
1504169715.7,286047001.4,N
1504169735.5,286046999.7,N
1504169755.3,286047000.0,N
1504169775.2,286046997.7,N
1504169795.9,286046992.0,N
1504169815.7,286046988.8,N
1504169835.6,286046987.7,N
1504169855.4,286046986.0,N
1504169875.2,286046984.9,N
1504169895.1,286046982.1,N
1504169896.0,286046982.1,N
1504169915.8,286046981.1,N
1504169935.6,286046979.8,N
1504169955.5,286046976.3,N
1504169975.3,286046976.1,N
1504169995.1,286046977.1,N
